Terminal Aerodrome Forecast
Issued by NWS

Home | Current Version | Previous Version | Text Only | Print | Product List | Glossary On
Versions: 1 2 3 4 5 6 7 8 9 10 11 12 13 14 15 16 17 18 19 20 21 22 23 24 25 26 27 28 29 30
000
FTUS42 KCAE 030000 CCA
TAFOGB
TAF COR
KOGB 030002Z 0300/0324 VRB03KT P6SM SCT040 OVC070
      TEMPO 0300/0302 4SM SHRA BR
     FM030300 VRB03KT P6SM BKN150
     FM030900 00000KT 4SM BR SCT250
      TEMPO 0309/0312 1SM BR BKN001
     FM031200 VRB05KT P6SM SCT250=

USA.gov is the U.S. government's official web portal to all federal, state and local government web resources and services.